Погода в Углекаменске

Россия / Приморский край     43°13′11″N   133°13′51″E
темп.,
°C
ветер,
м/с
пор.,
м/с
влажн.,
%
обл.,
%
осадки,
мм/ч
давл.,
гПа
погр.,
м
24 января, вс
вс2401:00−13ссв01750 0.0 102920
04:00−13ссв11750 0.0 102820
07:00−13ссв11770 0.0 102720
10:00−10ссв11700 0.0 102742
13:00−2сз11570 0.0 1026228
16:000ссз01620 0.0 1025181
19:00−5ссв12850 0.0 102721
22:00−7ссв22880 0.0 102725
25 января, пн
пн2501:00−8ссв22820 0.0 102925
04:00−9ссв22810 0.0 102926
07:00−9ссв22810 0.0 103028
10:00−6ссв22710 0.0 103185
13:00+2с01510 0.0 1030272
16:00+2юз12570 0.0 1028276
19:00−5ююв12800 0.0 102923
22:00−7вюв11850 0.0 102923
26 января, вт
вт2601:00−7в118488 0.0 102826
04:00−6в118694 0.0 102625
07:00−6в1289100 0.0 102343
10:00−4в1189100 0.1 102267
13:00−2юв1193100 0.3 1019138
16:00−1ююв1398100 2.9 1016163
19:00−2ссз009999 3.8 101521
22:00−2с129899 8.1 101597
27 января, ср
ср2701:00−6ссз2582100 0.3 1016168
04:00−12з128967 0.3 101829
07:00−14сз11955 0.0 101927
10:00−12з148750 0.0 1021427
13:00−9зсз485925 0.0 10221400
16:00−10з4116230 0.0 10221677
19:00−15сз128243 0.0 102442
22:00−17ссв118322 0.0 102525
28 января, чт
чт2801:00−18с11880 0.0 102525
04:00−19ссв22880 0.0 102534
07:00−18ссв2287100 0.0 102430
10:00−16ссв2378100 0.0 1023120
13:00−9с1255100 0.0 1019409
16:00−8ююз1261100 0.0 1015548
19:00−11всв2385100 0.1 1012116
22:00−12с3593100 0.6 1008301